Location: Homewood
(41.1836°S, 175.9581°E)
Time: 11:46:35
(UTC+00:00)

Okean 1-7 - Pass Details

Date: 18 April 2024
Orbit: 580 x 604 km, 82.5° (Epoch: 24 May)

Event Time Altitude Azimuth Distance (km) Brightness Sun altitude
Rises 16:46:33 0° 185° (S) 2,884 6.5 -24.0°
Reaches altitude 10° 16:48:49 10° 182° (S) 1,969 5.7 -23.6°
Maximum altitude 16:53:08 64° 100° (E) 671 3.4 -22.8°
Drops below altitude 10° 16:57:21 10° 17° (NNE) 1,924 5.7 -22.0°
Sets 16:59:33 0° 14° (NNE) 2,812 6.6 -21.6°
